�������C�����ː����j�^�v���󋵏��
Date,Time,Cs137(Bq/L),Cs134(Bq/L),�S��(Bq/L)
2017/08/14,00:00,0.83,0.060,ND
2017/08/14,00:10,0.85,0.057,ND
2017/08/14,00:20,0.85,0.059,ND
2017/08/14,00:30,0.85,0.061,ND
2017/08/14,00:40,0.85,0.055,ND
2017/08/14,00:50,0.85,0.055,ND
2017/08/14,01:00,0.84,0.051,ND
2017/08/14,01:10,0.82,0.054,ND
2017/08/14,01:20,0.82,0.049,ND
2017/08/14,01:30,0.80,0.056,ND
2017/08/14,01:40,0.80,0.048,ND
2017/08/14,01:50,0.77,0.034,ND
2017/08/14,02:00,0.77,0.035,ND
2017/08/14,02:10,0.75,0.025,ND
2017/08/14,02:20,0.76,ND,ND
2017/08/14,02:30,0.75,ND,8.8
2017/08/14,02:40,0.74,ND,ND
2017/08/14,02:50,0.74,0.029,ND
2017/08/14,03:00,0.76,ND,ND
2017/08/14,03:10,0.77,ND,ND
2017/08/14,03:20,0.74,0.034,ND
2017/08/14,03:30,0.73,0.034,ND
2017/08/14,03:40,0.72,0.033,ND
2017/08/14,03:50,0.72,0.032,ND
2017/08/14,04:00,0.72,0.039,ND
2017/08/14,04:10,0.73,0.041,ND
2017/08/14,04:20,0.76,ND,ND
2017/08/14,04:30,0.78,ND,ND
2017/08/14,04:40,0.77,0.026,ND
2017/08/14,04:50,0.83,ND,ND
2017/08/14,05:00,0.83,0.056,ND
2017/08/14,05:10,0.85,0.065,ND
2017/08/14,05:20,0.84,0.071,ND
2017/08/14,05:30,0.86,0.068,ND
2017/08/14,05:40,0.84,0.074,ND
2017/08/14,05:50,0.85,0.076,ND
2017/08/14,06:00,0.86,0.067,ND
2017/08/14,06:10,0.87,0.064,ND
2017/08/14,06:20,0.92,0.034,ND
2017/08/14,06:30,0.88,0.055,ND
2017/08/14,06:40,0.85,ND,ND
2017/08/14,06:50,0.92,ND,ND
2017/08/14,07:00,0.84,0.032,ND
2017/08/14,07:10,0.82,0.030,ND
2017/08/14,07:20,0.80,0.030,ND
2017/08/14,07:30,0.81,0.042,ND
2017/08/14,07:40,0.81,0.048,ND
2017/08/14,07:50,0.82,0.052,ND
2017/08/14,08:00,0.84,0.056,ND
2017/08/14,08:10,0.84,0.057,ND
2017/08/14,08:20,0.86,0.052,ND
2017/08/14,08:30,0.86,0.044,ND
2017/08/14,08:40,0.86,0.043,ND
2017/08/14,08:50,0.84,0.050,ND
2017/08/14,09:00,0.83,0.047,ND
2017/08/14,09:10,0.81,0.055,ND
2017/08/14,09:20,0.78,0.056,ND
2017/08/14,09:30,0.74,0.069,ND
2017/08/14,09:40,0.75,0.066,ND
2017/08/14,09:50,0.74,0.064,ND
2017/08/14,10:00,0.73,0.067,ND
2017/08/14,10:10,0.74,0.072,ND
2017/08/14,10:20,0.75,0.063,ND
2017/08/14,10:30,0.80,0.043,ND
2017/08/14,10:40,0.79,0.037,ND
2017/08/14,10:50,0.79,0.042,ND
2017/08/14,11:00,0.83,0.026,ND
2017/08/14,11:10,0.81,0.026,ND
2017/08/14,11:20,0.83,0.026,ND
2017/08/14,11:30,0.83,0.031,ND
2017/08/14,11:40,0.81,0.037,ND
2017/08/14,11:50,0.82,0.033,ND
2017/08/14,12:00,0.82,0.033,ND
2017/08/14,12:10,0.89,ND,ND
2017/08/14,12:20,0.78,ND,ND
2017/08/14,12:30,0.81,0.040,ND
2017/08/14,12:40,0.79,ND,ND
2017/08/14,12:50,0.81,ND,ND
2017/08/14,13:00,0.75,0.036,ND
2017/08/14,13:10,0.74,0.030,ND
2017/08/14,13:20,0.76,0.026,ND
2017/08/14,13:30,0.80,ND,ND
2017/08/14,13:40,0.78,ND,ND
2017/08/14,13:50,0.73,0.052,ND
2017/08/14,14:00,0.71,0.043,ND
2017/08/14,14:10,0.69,0.030,ND
2017/08/14,14:20,0.67,ND,ND
2017/08/14,14:30,0.58,0.031,ND
2017/08/14,14:40,0.61,ND,ND
2017/08/14,14:50,0.55,0.025,ND
2017/08/14,15:00,0.57,ND,ND
2017/08/14,15:10,0.54,ND,ND
2017/08/14,15:20,0.50,0.025,ND
2017/08/14,15:30,0.51,ND,ND
2017/08/14,15:40,0.48,0.025,ND
2017/08/14,15:50,0.52,ND,ND
2017/08/14,16:00,0.53,ND,ND
2017/08/14,16:10,0.54,ND,ND
2017/08/14,16:20,0.55,ND,ND
2017/08/14,16:30,0.56,ND,ND
2017/08/14,16:40,0.57,ND,ND
2017/08/14,16:50,0.52,0.025,ND
2017/08/14,17:00,0.56,ND,ND
2017/08/14,17:10,0.57,ND,ND
2017/08/14,17:20,0.54,0.026,ND
2017/08/14,17:30,0.57,ND,ND
2017/08/14,17:40,0.54,0.025,ND
2017/08/14,17:50,0.54,0.031,ND
2017/08/14,18:00,0.52,0.037,ND
2017/08/14,18:10,0.58,ND,ND
2017/08/14,18:20,0.53,0.030,ND
2017/08/14,18:30,0.53,0.045,ND
2017/08/14,18:40,0.54,0.037,ND
2017/08/14,18:50,0.55,0.037,ND
2017/08/14,19:00,0.54,0.040,ND
2017/08/14,19:10,0.54,0.042,ND
2017/08/14,19:20,0.55,0.042,ND
2017/08/14,19:30,0.55,0.032,ND
2017/08/14,19:40,0.54,0.035,ND
2017/08/14,19:50,0.55,0.030,ND
2017/08/14,20:00,0.54,0.032,ND
2017/08/14,20:10,0.54,0.032,ND
2017/08/14,20:20,0.54,0.028,ND
2017/08/14,20:30,0.55,0.029,ND
2017/08/14,20:40,0.60,ND,ND
2017/08/14,20:50,0.56,0.033,ND
2017/08/14,21:00,0.59,ND,ND
2017/08/14,21:10,0.68,0.036,ND
2017/08/14,21:20,0.73,0.045,ND
2017/08/14,21:30,0.82,0.041,ND
2017/08/14,21:40,0.86,0.054,ND
2017/08/14,21:50,0.91,0.037,ND
2017/08/14,22:00,0.93,0.066,ND
2017/08/14,22:10,0.92,0.068,ND
2017/08/14,22:20,0.99,0.057,ND
2017/08/14,22:30,0.94,0.030,ND
2017/08/14,22:40,0.97,0.031,ND
2017/08/14,22:50,0.98,0.032,ND
2017/08/14,23:00,1.0,0.027,ND
2017/08/14,23:10,1.1,0.063,ND
2017/08/14,23:20,1.0,0.076,ND
2017/08/14,23:30,1.1,0.078,ND
2017/08/14,23:40,1.0,0.079,ND
2017/08/14,23:50,1.0,0.079,ND
